Theta_e
311 310 308 308 308 307 307 308 307 308 309 309 310 312 313 315 316 317 318 321 325 328 331 335 337 336 337 336 335 335 336 334 321 319 321 323 320 318 315 312 311 310 306
308 307 306 307 306 305 305 305 307 308 308 309 310 311 312 313 314 315 318 322 325 328 331 333 336 335 334 334 334 333 329 327 321 312 316 316 315 312 311 312 306 308 310
305 305 304 304 303 303 304 304 305 306 307 308 309 310 312 313 315 315 316 318 321 325 329 332 334 335 334 333 330 329 325 321 320 315 315 314 313 312 309 308 309 310 311
302 302 303 302 302 302 303 304 305 306 308 309 310 311 311 312 314 316 317 318 322 326 329 331 333 333 329 325 324 322 317 315 316 312 310 307 309 309 310 310 309 310 310
301 302 301 301 301 302 302 303 304 305 306 307 310 313 313 313 314 316 318 319 324 323 323 324 325 325 323 321 319 313 312 309 307 307 308 310 309 309 310 309 309 309 309
300 300 300 299 300 301 302 302 303 304 305 308 313 318 315 314 316 317 319 321 317 314 311 310 311 314 313 311 309 308 308 307 309 310 310 310 310 309 307 308 308 307 304
299 298 298 298 300 301 301 301 301 302 304 305 307 310 312 317 322 320 317 311 308 306 306 306 305 305 306 306 307 308 308 308 307 306 309 308 307 307 306 308 308 308 308
297 296 296 299 300 300 299 300 300 301 301 301 302 303 304 305 306 309 310 306 304 302 302 302 303 303 304 305 305 304 303 303 305 307 306 306 305 306 307 307 307 307 307
295 296 297 299 299 299 299 299 299 299 299 299 299 299 300 302 302 303 305 302 301 301 302 302 302 301 301 302 303 304 305 306 306 305 305 306 306 307 307 306 306 305 304
294 296 297 298 298 298 299 299 299 298 298 298 298 298 298 299 300 300 300 300 300 301 302 303 303 304 305 305 305 304 304 304 305 306 306 307 307 307 307 307 306 306 305
296 296 296 296 297 297 298 298 298 298 297 297 297 297 298 298 299 299 299 300 301 301 302 304 305 305 306 306 307 306 306 306 306 307 308 308 308 308 308 308 307 307 306
294 294 294 294 295 295 296 297 297 297 297 297 297 297 297 298 299 300 300 300 300 301 302 302 303 304 304 305 305 307 307 307 309 309 308 309 308 308 308 306 306 307 306
294 292 292 293 294 294 294 296 296 296 297 297 297 297 297 297 298 299 300 300 300 300 300 301 302 303 305 306 307 307 308 308 308 308 307 307 307 306 306 305 304 305 302
293 293 292 292 292 293 294 294 294 295 296 297 297 297 297 298 299 299 299 299 300 301 301 301 302 305 306 306 306 307 307 307 306 307 306 306 306 305 304 304 302 300 300
294 293 293 292 292 293 293 294 295 295 296 296 297 297 297 296 295 297 299 299 298 298 300 301 303 304 304 305 305 305 306 305 305 305 304 304 304 304 304 303 302 300 299
294 293 293 293 292 293 293 294 295 296 296 297 296 297 296 295 295 298 299 299 299 299 299 299 300 303 304 303 303 303 303 304 303 303 303 303 303 303 303 303 301 298 298
294 294 293 294 293 294 294 294 294 295 295 296 296 297 297 298 298 298 298 298 298 298 297 297 297 298 302 303 302 302 302 302 302 302 303 303 303 302 300 300 298 296 296
295 294 294 294 294 294 295 295 295 296 296 297 297 297 298 298 298 298 297 297 296 296 295 295 295 297 298 301 302 301 300 301 301 302 302 302 301 300 298 298 296 295 295
297 295 295 295 295 296 296 296 296 297 297 298 297 297 297 297 297 297 297 297 296 295 294 295 296 296 296 298 300 300 300 300 301 301 301 300 298 297 296 296 296 296 295
298 298 298 297 297 297 296 296 296 296 296 296 297 297 296 296 295 294 294 293 293 293 293 295 296 295 295 295 297 298 299 299 301 299 298 297 296 295 295 294 295 295 295
299 298 297 295 295 295 296 296 297 297 296 297 297 297 296 296 295 294 293 291 291 292 293 294 294 294 295 294 295 297 297 298 298 298 298 296 296 295 294 294 294 295 295
298 295 295 295 295 295 296 296 297 297 297 297 297 296 295 295 294 294 293 293 291 292 293 293 293 293 293 294 294 297 297 298 298 298 298 295 294 294 294 294 295 295 296
298 296 296 295 295 296 296 297 297 297 297 297 296 296 295 295 294 293 292 291 290 291 293 293 293 293 294 296 297 297 298 298 297 296 295 294 293 294 294 294 295 295 294
298 297 297 297 297 297 297 297 296 297 297 296 296 296 295 294 293 292 291 289 289 291 292 292 293 293 295 296 297 297 297 296 295 295 294 293 293 294 294 294 294 293 293
297 296 296 297 297 296 296 296 296 297 296 296 296 295 295 294 293 292 290 288 288 290 291 292 293 296 296 296 295 296 296 295 296 296 294 294 293 293 293 293 293 293 292
297 297 297 296 296 295 295 296 296 296 296 296 295 295 294 293 292 290 289 287 287 289 291 292 294 295 296 295 295 295 295 295 295 295 294 294 293 293 292 292 292 292 292
Wind_Speed
25 27 32 31 30 31 32 32 33 32 31 31 31 30 29 29 28 26 27 28 29 28 28 27 29 29 32 31 28 22 16 7 3 3 7 16 15 14 11 6 4 7 12
25 32 31 30 31 31 32 31 31 31 32 33 31 31 31 29 29 27 25 23 24 24 26 27 28 30 28 26 18 12 11 5 5 3 13 13 9 9 6 2 7 6 9
34 30 30 29 31 32 32 32 31 31 33 33 31 30 30 29 27 26 25 26 25 26 29 27 27 24 15 14 19 14 9 7 6 10 9 7 6 8 3 4 7 8 10
29 28 26 30 31 32 33 33 32 31 30 31 32 33 32 29 27 25 23 24 24 23 18 9 6 13 22 24 19 14 12 13 15 20 19 16 13 8 5 5 8 5 8
29 27 30 31 32 31 31 31 31 28 27 29 30 32 27 25 24 22 24 23 19 10 13 17 20 22 23 22 22 19 21 22 20 18 14 13 11 7 3 5 5 7 3
28 28 29 31 31 30 29 25 23 22 21 20 19 11 13 18 19 20 22 13 22 27 30 30 29 29 26 26 29 26 24 26 23 19 14 12 8 5 3 6 4 3 2
25 29 29 30 29 26 24 22 22 21 21 22 22 14 8 1 12 14 30 29 29 29 29 32 33 32 32 32 30 28 28 24 19 17 14 6 3 2 1 2 4 5 7
26 26 28 29 25 24 22 23 22 22 25 24 27 26 30 28 31 38 36 36 35 32 30 32 34 31 27 27 28 27 24 21 17 12 10 9 7 7 6 3 8 6 2
25 25 27 25 23 23 23 25 22 22 27 28 29 32 32 30 28 32 42 36 37 35 32 31 31 31 27 27 30 26 16 13 9 12 11 9 9 11 11 11 11 8 2
25 24 24 24 24 23 24 22 23 23 26 29 30 32 33 33 31 31 32 36 36 34 33 30 26 25 22 20 19 14 11 5 6 8 5 6 4 5 6 6 9 7 5
23 20 22 25 23 25 25 25 24 25 27 28 29 31 33 33 35 34 31 34 31 30 30 28 24 22 19 16 12 8 7 4 2 1 4 5 6 3 1 1 4 6 1
19 19 22 25 25 26 27 27 26 24 26 26 27 30 32 35 37 39 40 36 34 35 30 28 26 22 19 16 15 14 9 9 13 13 13 6 2 11 16 14 12 7 6
20 23 22 25 25 28 28 25 25 24 25 25 24 24 24 26 29 31 30 29 28 25 20 18 17 17 20 21 24 26 23 21 19 17 18 23 18 15 13 13 13 10 9
22 22 22 24 27 27 28 27 25 22 22 21 20 19 19 24 25 24 22 20 19 19 16 14 14 18 25 28 28 26 25 19 23 22 20 16 14 15 16 12 15 13 10
22 21 23 23 23 28 32 27 28 30 26 24 25 23 21 22 21 18 19 15 15 13 18 24 32 32 29 28 29 28 24 22 20 20 19 18 16 13 10 10 11 15 9
21 21 23 25 27 25 24 26 27 28 29 28 24 22 22 19 20 21 24 29 30 31 32 29 27 28 27 27 25 25 26 23 20 19 17 14 11 12 13 11 11 16 12
25 25 23 22 21 20 18 16 15 19 18 17 15 17 19 26 33 34 34 35 34 36 29 29 28 29 21 23 25 24 21 18 18 14 12 12 13 13 14 11 14 13 9
19 18 20 20 20 21 20 19 17 16 16 23 29 33 38 36 30 30 32 34 31 35 32 28 26 29 30 22 21 21 18 17 16 16 17 16 16 13 13 12 11 10 8
13 15 15 16 16 15 14 14 14 15 19 25 27 32 33 34 34 33 33 32 28 27 27 29 31 30 28 27 22 21 18 17 18 18 17 16 17 14 11 8 8 7 9
7 7 7 9 8 9 16 18 24 26 24 25 29 29 30 31 29 29 32 32 29 29 31 30 28 28 25 23 22 21 18 21 20 18 18 16 15 13 10 10 9 10 11
5 11 12 15 17 19 19 20 23 26 26 28 29 26 25 27 27 28 28 31 31 30 28 28 26 26 25 26 21 18 18 18 20 17 17 17 12 11 10 11 11 13 12
15 18 19 21 20 15 11 11 18 20 22 25 26 27 28 29 28 30 32 30 30 29 28 26 26 24 22 21 22 21 17 19 19 18 14 13 12 12 13 15 16 14 13
11 12 10 10 7 6 7 21 24 24 24 23 24 26 27 28 29 30 29 27 26 25 25 26 27 28 25 24 23 23 22 19 16 15 12 14 16 16 17 17 15 14 13
13 8 4 4 14 21 21 21 21 22 23 24 25 25 26 28 29 28 27 27 28 27 24 24 25 26 25 25 23 21 20 20 15 14 17 17 18 19 19 15 17 15 13
11 18 18 15 21 22 22 21 20 22 24 26 28 29 28 28 28 26 25 26 26 26 26 28 29 26 24 24 24 20 18 21 19 20 21 21 21 22 21 19 18 17 16
13 14 15 19 21 22 21 21 22 23 24 25 26 26 26 26 27 26 26 26 27 27 26 27 28 26 24 24 23 25 24 18 22 22 23 25 26 25 22 22 21 19 19
Wind_Direction
338 336 328 318 311 308 303 297 297 293 287 284 281 279 275 272 266 265 272 274 275 274 275 273 268 272 268 265 251 250 248 194 138 149 168 181 174 172 176 196 186 272 276
338 331 324 315 311 310 304 301 299 294 290 286 279 273 271 269 267 266 267 267 277 279 276 271 267 271 276 261 245 186 148 172 147 129 140 152 160 173 165 181 296 275 277
334 326 319 318 316 310 306 303 300 294 288 285 278 270 265 260 258 259 260 263 271 274 276 273 270 270 238 188 163 146 154 160 127 139 119 123 121 137 114 354 329 313 302
330 324 321 321 317 312 308 306 303 298 292 288 280 270 259 252 250 252 255 257 265 271 274 254 226 192 162 151 135 131 138 118 122 118 114 108 109 98 52 22 312 352 324
331 332 326 323 320 318 314 312 311 310 306 299 293 282 252 244 246 246 246 253 253 162 132 121 123 135 136 134 130 131 126 114 102 95 81 85 83 83 46 9 332 329 354
333 331 332 328 325 323 322 327 332 332 338 344 325 278 254 252 250 240 238 192 139 127 111 107 105 114 119 121 117 116 121 114 99 91 89 89 72 64 287 266 263 335 341
339 337 335 332 330 334 343 355 359 5 16 24 39 74 78 104 239 192 145 125 116 111 110 109 106 110 114 110 109 107 98 99 102 106 105 104 198 228 255 297 6 345 317
343 341 340 337 343 353 4 10 13 26 34 36 43 53 68 75 100 124 122 112 103 100 103 106 110 111 111 111 109 104 102 103 104 107 117 113 94 89 66 19 3 338 2
344 345 345 351 1 6 9 21 22 41 47 47 51 55 63 70 83 94 111 101 96 95 100 104 104 100 102 107 106 106 107 123 127 127 137 113 95 76 62 50 35 23 349
344 349 0 12 14 13 21 26 39 44 53 57 56 63 67 70 80 83 93 98 94 95 97 95 95 98 98 96 97 104 118 142 137 120 142 146 117 90 65 58 43 36 2
354 14 21 28 29 31 35 40 45 52 56 57 61 62 68 78 88 90 87 93 98 98 96 95 91 92 95 95 100 124 127 123 107 33 257 200 179 195 352 40 39 23 66
24 28 27 37 43 44 44 44 45 51 56 57 64 65 66 74 85 91 92 95 99 100 102 103 100 95 87 76 68 69 78 75 94 111 98 133 141 72 75 73 50 67 85
32 32 34 53 49 57 51 49 50 50 58 61 63 61 57 62 72 81 86 91 92 95 100 101 99 80 68 62 62 65 70 74 69 64 68 80 77 78 77 48 32 79 65
42 37 39 46 52 56 57 54 52 51 56 58 53 46 46 60 60 60 63 68 74 74 70 62 63 77 74 66 64 64 69 70 74 78 76 76 70 59 50 30 37 33 21
46 43 44 46 52 60 61 64 67 71 74 70 64 62 52 46 41 44 63 56 48 38 61 72 76 73 69 66 61 58 64 62 58 59 53 47 45 42 49 41 35 26 29
52 47 51 56 61 62 66 71 81 87 91 91 83 69 46 28 42 77 76 73 73 72 67 63 69 73 69 67 63 60 63 59 54 55 50 40 31 36 31 33 30 21 16
70 72 72 74 68 62 55 58 59 80 83 78 66 57 53 63 70 72 72 70 68 67 56 51 48 50 67 78 66 56 51 54 56 48 33 31 42 43 34 38 25 20 6
81 73 79 78 70 63 66 63 57 44 32 43 58 63 64 68 69 71 71 69 61 60 57 52 47 43 41 58 72 62 57 53 40 40 45 40 41 37 29 30 28 7 353
87 87 78 72 66 61 50 39 33 36 49 60 58 60 63 65 63 62 60 58 58 58 55 52 48 46 45 44 53 58 52 42 34 38 38 39 28 33 27 17 6 2 16
53 52 49 51 43 25 56 59 57 59 59 61 64 62 63 60 56 54 54 54 53 53 56 53 51 44 41 42 42 44 37 29 38 34 35 37 38 30 19 17 14 13 24
63 87 76 78 81 92 83 74 74 73 69 67 65 65 68 67 67 65 62 57 56 57 55 54 50 49 43 42 43 42 38 40 34 34 31 25 22 20 24 32 30 38 39
83 79 91 99 102 95 79 53 55 72 70 67 70 70 71 71 67 64 61 61 57 54 53 54 52 46 42 40 34 38 42 37 32 18 24 26 39 41 45 36 28 27 29
45 121 112 106 91 56 35 80 79 76 75 75 72 70 68 69 69 66 62 59 58 56 53 51 46 44 47 48 48 41 38 32 28 27 36 42 45 49 34 23 28 39 53
50 147 141 114 98 88 88 84 82 80 80 78 76 72 70 71 69 67 63 56 54 55 56 53 47 45 50 50 46 40 38 32 39 51 51 56 53 40 41 41 39 43 58
82 97 94 79 90 88 86 85 78 77 80 76 72 71 69 70 69 67 61 56 55 55 54 50 46 50 56 49 45 40 39 40 52 55 58 59 58 53 47 43 46 42 53
110 101 96 97 95 94 90 88 82 82 78 76 75 74 73 73 70 65 60 56 55 56 55 53 52 58 59 51 46 44 47 47 54 54 59 59 57 54 49 50 50 53 58